THORAD DELTA 1 DEB, 9984

Orbit data source: Space-Track

THORAD DELTA 1 DEB, 9984 is space debris in SSO originally from a launch on Fri, 15 Nov 1974 UTC launched from the Air Force Western Test Range (AFWTR). Debris objects in space refer to the collection of defunct objects orbiting the Earth. Examples of debris include non-operational satellites, rocket bodies, and fragments generated from explosions, collisions, or faulty payload assembly.

Loading next visibility...
Identifier
9984, 1974-089EB
Orbit
SSO
Country
Flag of USUS
Related business
Manufacturer
Unknown
Mission
Spacecraft
Bus & Motor
Unknown
Mass
Unknown
Launch date (UTC)
1974-11-15 (51 years ago)
Launch vehicle
Unknown
Launch site
Air Force Western Test Range (AFWTR)
Object type
Payload
Rocket body
Debris
Shape & HBR
Unknown shape, 0.1 m
Radar Cross Section
Small (<0.1 m²)

Expand to show TLE details & history
Last TLE update: 12 hours ago

TLE from 12 hours ago
0 THORAD DELTA 1 DEB
1  9984U 74089EB  25302.53941758 -.00000018  00000-0  21048-3 0  9990
2  9984 102.3228 291.9007 0094767 215.4389 269.0955 12.40449829308700
Epoch: 2025-10-29T12:56Z
TLE epoch observation values (Epoch: 2025-10-29T12:56:45.678Z)
Latitude
54.69706°
Longitude
-102.52272°
Altitude
1,515.385 km
Speed
7.112 km/s
True Right ascension
08h 39m 06s
True Declination
54° 33' 01"
Sunlit
Object was in daylight at epoch
Visualization orbit readout
Latitude
Unknown
Longitude
Unknown
Altitude
Unknown
Speed
Unknown
Apparent Right ascension
Unknown
Apparent Declination
Unknown
Sunlit
N/A
Visualization observer readout
Local Sidereal Time
20:03:42
Azimuth
Unknown
Elevation
Unknown
Doppler factor
Unknown
Orbital elements
Apogee altitude
1,576.971 km
Perigee altitude
1,427.61 km
Semi-major axis
7,880.427 km
Eccentricity
0.00948
Inclination
102.3228°
RAAN
291.9007°
Arg. of periapsis
215.4389°
True anomaly
268.00995°
Mean anomaly
269.0955°
Eccentric anomaly
268.5527°
Mean motion
3.10255 °/min
Orbital period
116.03 mins
BSTAR
0.00021048
Loading maneuver chart data...
Computing Atmospheric mass density...

Documentation

Showing up to 5 results
|